Location: Arclight Observatory
(36.5667°N, 87.3333°W)
Time: 04:26:04
(UTC-05:00)

ISS - Visible Passes

Search period start: 31 July 2014 00:00
Search period end: 10 August 2014 00:00
Orbit: 411 x 419 km, 51.6° (Epoch: 31 July)

Date Brightness Start Highest point End Pass type
(mag) Time Alt. Az. Time Alt. Az. Time Alt. Az.
31 Jul -0.2 04:21:44 10° NNW 04:23:57 16° NNE 04:26:09 10° ENE visible
01 Aug 0.1 03:33:32 10° N 03:34:51 12° NNE 03:36:10 10° NE visible
01 Aug -2.6 05:08:49 10° NW 05:12:09 61° NE 05:15:28 10° ESE visible
01 Aug -1.3 21:49:11 10° SW 21:50:15 19° SW 21:50:15 19° SW visible
02 Aug -1.5 04:20:08 10° NNW 04:23:14 34° NE 04:26:20 10° ESE visible
02 Aug -2.9 21:00:35 10° SSW 21:03:43 39° SE 21:06:51 10° ENE visible
02 Aug -0.7 22:37:52 10° W 22:40:32 22° NNW 22:41:08 21° NNW visible
03 Aug -0.7 03:31:34 10° NNW 03:34:15 22° NNE 03:36:56 10° E visible
03 Aug -2.8 05:07:54 10° WNW 05:11:04 40° SW 05:14:14 10° SSE visible
03 Aug -1.5 21:48:29 10° WSW 21:51:32 34° NW 21:54:37 10° NNE visible
04 Aug 0.0 02:46:03 14° NE 02:46:03 14° NE 02:47:15 10° ENE visible
04 Aug -3.4 04:19:14 12° NW 04:22:16 80° SW 04:25:37 10° SE visible
04 Aug -2.7 20:59:20 10° WSW 21:02:37 60° NW 21:05:55 10° NE visible
04 Aug 0.2 22:38:38 10° NW 22:39:54 12° NNW 22:41:10 10° N visible
05 Aug -1.3 05:10:18 13° SW 05:10:18 13° SW 05:11:24 10° SSW visible
05 Aug -0.1 21:48:36 10° WNW 21:50:46 16° NNW 21:52:57 10° NNE visible
06 Aug -0.7 20:58:58 10° W 21:01:42 23° NNW 21:04:28 10° NNE visible
08 Aug -0.1 20:59:30 10° NW 21:00:59 12° NNW 21:02:28 10° N visible
09 Aug -0.4 20:09:32 10° WNW 20:11:50 17° NNW 20:14:09 10° NNE visible
